sat.trackr.live / text

‹ back to catalog

STARLINK-33825

NORAD 63505 · 2025-071N

PAYLOAD ACTIVE UNKNOWN

§ Identity

Operator
Country
US
Launch date
2025-04-07
Launch site
AFWTR
Launch vehicle
Mass (kg)
RCS (m²)

Purposes: comms

External: N2YO · Heavens-Above · Gunter

§ Orbital elements

Epoch: 2026-09-20T10:27:00.521280Z

Period
93.85 min
Inclination
53.1585°
Eccentricity
0.0001049
Mean motion
15.34396015 rev/d
Perigee alt
462.0 km
Apogee alt
463.4 km
Semi-major
6,840.9 km
B*
6.2510e-4
RAAN
314.1222°
Arg perigee
84.3988°
Mean anomaly
275.7135°
Rev number
8,260

§ Raw data

STARLINK-338251 63505U 25071N   26263.43542270  .00020800  00000+0  62510-3 0  99962 63505  53.1585 314.1222 0001049  84.3988 275.7135 15.34396015 82600

JSON: /api/v1/satellites/63505 · /tle

For live sub-satellite position, see the globe view (requires WebGL).

§ Visibility from observer

Set your observer location to see the next 7 days of passes ≥ 10°. The values pass through the URL so the page stays shareable.

No JS? Fill the form by hand. The geolocation button needs JavaScript.